Regional Weather Roundup
Issued by NWS

Home | Current Version | Previous Version | Graphics & Text | Print | Product List | Glossary Off
Versions: 1 2 3 4 5 6 7 8 9 10 11 12 13 14 15 16 17 18 19 20 21 22 23 24 25 26 27 28 29 30 31 32 33 34 35 36 37 38 39 40 41 42 43 44 45 46 47 48 49 50

000
ASUS43 KTOP 260508
RWRKS

WEATHER ROUNDUP FOR KANSAS
NATIONAL WEATHER SERVICE GOODLAND KS
1200 AM CDT SAT MAY 26 2018

NOTE:  "FAIR" INDICATES FEW OR NO CLOUDS BELOW 12,000 FEET WITH NO
SIGNIFICANT WEATHER AND/OR OBSTRUCTIONS TO VISIBILITY.

KSZ001>006-013>018-027>032-041>047-260600-
NORTHWEST KANSAS

CITY           SKY/WX    TMP DP  RH WIND       PRES   REMARKS
GOODLAND       CLEAR     71  49  45 S10       29.92S
HAYS           CLEAR     72  64  76 SW7       29.85S
HILL CITY      CLEAR     75  62  64 S8        29.85S
RUSSELL        CLEAR     72  67  84 S10       29.82F
$$

KSZ061>065-074>080-084>089-260600-
SOUTHWEST KANSAS

CITY           SKY/WX    TMP DP  RH WIND       PRES   REMARKS
DODGE CITY     CLEAR     71  64  78 S12       29.90S
ELKHART        CLEAR     74  68  79 SE13      29.94S
GARDEN CITY    CLOUDY    71  60  68 S8        29.91R
GREAT BEND     CLEAR     71  67  87 S9        29.86S
LIBERAL        CLEAR     74  66  76 E12       29.92S
PRATT          CLEAR     73  64  74 S10       29.88S
$$

KSZ066>073-081>083-090>101-260600-
SOUTHEAST KANSAS

CITY           SKY/WX    TMP DP  RH WIND       PRES   REMARKS
CHANUTE        CLEAR     71  68  90 S7        29.85F
COFFEYVILLE      N/A     71  66  84 CALM      29.84F
HUTCHINSON     CLEAR     71  66  84 SW5       29.85R
MEDICINE LODGE   N/A     73  65  75 SE7       29.86S
NEWTON         CLEAR     72  64  76 S8        29.86S
PARSONS        CLOUDY    68  67  96 CALM      29.86F
WICHITA INTL   CLEAR     69  64  84 SW6       29.85S
WICHITA JABRA  CLEAR     72  64  76 S8        29.85S
WICHITA MCCONL CLEAR     70  62  76 SW8       29.85S
WINFIELD       CLEAR     69  64  84 SE5       29.87S
$$

KSZ007>012-019>026-033>040-048>060-102>105-260600-
NORTHEAST KANSAS

CITY           SKY/WX    TMP DP  RH WIND       PRES   REMARKS
CONCORDIA      PTCLDY    77  65  66 S13       29.80S
EMPORIA        CLEAR     69  65  86 S7        29.83S
LAWRENCE       CLEAR     71  69  93 E3        29.80F
MANHATTAN      CLEAR     74  65  73 S7        29.81R
OLATHE IND     CLEAR     71  67  87 S6        29.83F
OLATHE EXE     CLEAR     72  66  81 SW5       29.83F
SALINA         CLEAR     70  67  90 S7        29.82S
TOPEKA BILLARD CLEAR     76  69  79 SW5       29.80F
TOPEKA FORBES  CLEAR     74  69  85 S8        29.82S
$$




USA.gov is the U.S. government's official web portal to all federal, state and local government web resources and services.